Regional Weather Roundup
Issued by NWS Jackson, KY

Home | Current Version | Previous Version | Graphics & Text | Print | Product List | Glossary On
Versions: 1 2 3 4 5 6 7 8 9 10 11 12 13 14 15 16 17 18 19 20 21 22 23 24 25 26 27 28 29 30 31 32 33 34 35 36 37 38 39 40 41 42 43 44 45 46 47 48 49 50
000
ASUS43 KJKL 291910
RWRJKL

EAST KENTUCKY HOURLY WEATHER ROUNDUP
NATIONAL WEATHER SERVICE JACKSON KY
300 PM EDT SUN MAR 29 2015

NOTE: "FAIR" INDICATES FEW OR NO CLOUDS BELOW 12,000 FEET WITH
NO SIGNIFICANT WEATHER AND/OR OBSTRUCTIONS TO VISIBILITY.

* THESE REPORTS ARE NOT UNDER NWS QUALITY CONTROL AND MAY NOT
  REPORT WEATHER SUCH AS PRECIPITATION AND FOG.

KYZ079-080-083-085-087-088-110-112-115-119-120-292000
...EASTERN KENTUCKY...

CITY           SKY/WX    TMP DP  RH WIND       PRES   REMARKS
JACKSON        SUNNY     53   8  16 VRB6      30.23F
LONDON         SUNNY     54   6  14 S15       30.23F
SOMERSET*      SUNNY     54  10  17 S8        30.22F
MONTICELLO*    SUNNY     58  12  16 S9        30.23F
MIDDLESBORO*   SUNNY     53  12  19 SW8       30.27F
HAZARD APT*    CLEAR     54   7  15 SW9       30.24F
BLACK MTN*       N/A     39   9  28 SW5         N/A
PIKEVILLE APT* SUNNY     50  10  20 SW5       30.24F
BIG SANDY*     PTCLDY    50  10  20 SW3       30.25F
MOREHEAD APT*  CLEAR     52   7  16 SW10G17   30.24F
$$

KYZ035-036-041-042-044-050-067-078-099-292000
...CENTRAL KENTUCKY...

CITY           SKY/WX    TMP DP  RH WIND       PRES   REMARKS
MT STERLING*   SUNNY     52  14  22 SW10      30.22F
FLEMING/MASON* SUNNY     48  14  25 S14G20    30.21F
DANVILLE*      SUNNY     54  14  20 SW12      30.20F
RICHMOND*      SUNNY     54   7  15 S15G21    30.20F
LEXINGTON      SUNNY     54  11  18 S17G25    30.19F
FRANKFORT      SUNNY     52   9  17 S14G25    30.17F
$$

KYZ091>093-OHZ055-061-077-WVZ005-015-034-035-042-292000
...SOUTHERN OHIO/WEST VIRGINIA...

CITY           SKY/WX    TMP DP  RH WIND       PRES   REMARKS
COVINGTON      PTSUNNY   49  14  24 S17G28    30.16F
COLUMBUS       PTSUNNY   43  11  27 S14G28    30.19F
DAYTON         CLOUDY    46  15  28 S20G28    30.12F
WILMINGTON     MOSUNNY   45  18  34 S18G25    30.16F
HUNTINGTON     MOSUNNY   49   6  17 SW9       30.24F
CHARLESTON     MOSUNNY   49   6  17 VRB3      30.25F
PINEVILLE*     SUNNY     50   9  18 MISG      30.28F
BECKLEY        SUNNY     46  -2  13 MISG      30.21F
BLUEFIELD      SUNNY     49   3  15 NW8       30.21F
$$

VAZ002-007-008-TNZ017-027-036-066-071-292000
...SOUTHWEST VIRGINIA/EAST TENNESSEE...

CITY           SKY/WX    TMP DP  RH WIND       PRES   REMARKS
WISE*          SUNNY     48   0  13 SW14      30.24S
JONESVILLE*    CLEAR     52   1  12 SW7       30.29F
ABINGDON*      SUNNY     52  -3  10 W13G18    30.25S
BRISTOL        MOSUNNY   52   6  15 VRB7G16   30.26F
KNOXVILLE      MOSUNNY   54  14  20 W8        30.26F
OAK RIDGE      SUNNY     55  12  18 S9        30.28F
CROSSVILLE     SUNNY     52  10  18 S12G17    30.25F
NASHVILLE      MOSUNNY   60  21  22 S14G21    30.21F
$$

...KEY TO REMARKS...
VSB - VISIBILITY IN MILES
WCI - WIND CHILL INDEX
HX  - HEAT INDEX

$$


USA.gov is the U.S. government's official web portal to all federal, state and local government web resources and services.